SCP
0 0 0 0 0 0 0 0 0 0 0 0 0 0 0 0 0 0 0 0 0 0 0 0 0 0 0 0 0 0 0 0 0 0 0 0 0 0
0 0 0 0 0 0 0 0 0 0 0 0 0 0 0 0 0 0 0 0 0 0 0 0 0 0 0 0 0 0 0 0 0 0 0 0 0 0
0 0 0 0 0 0 0 0 0 0 0 0 0 0 0 0 0 0 0 0 0 0 0 0 0 0 0 0 0 0 0 0 0 0 0 0 0 0
0 0 0 0 0 0 0 0 0 0 0 0 0 0 0 0 0 0 0 0 0 0 0 0 0 0 0 0 0 0 0 0 0 0 0 0 0 0
0 0 0 0 0 0 0 0 0 0 0 0 0 0 0 0 0 0 0 0 0 0 0 0 0 0 0 0 0 0 0 0 0 0 0 0 0 0
0 0 0 0 0 0 0 0 0 0 0 0 0 0 0 0 0 0 0 0 0 0 0 0 0 0 0 0 0 0 0 0 0 0 0 0 0 0
0 0 0 0 0 0 0 0 0 0 0 0 0 0 0 0 0 0 0 0 0 0 0 0 0 0 0 0 0 0 0 0 0 0 0 0 0 0
0 0 0 0 0 0 0 0 0 0 0 0 0 0 0 0 0 0 0 0 0 0 0 0 0 0 0 0 0 0 0 0 0 0 0 0 0 0
0 0 0 0 0 0 0 0 0 0 0 0 0 0 0 0 0 0 0 0 0 0 0 0 0 0 0 0 0 0 0 0 0 0 0 0 0 0
0 0 0 0 0 0 0 0 0 0 0 0 0 0 0 0 0 0 0 0 0 0 0 0 0 0 0 0 0 0 0 0 0 0 0 0 0 0
0 0 0 0 0 0 0 0 0 0 0 0 0 0 0 0 0 0 0 0 0 0 0 0 0 0 0 0 0 0 0 0 0 0 0 0 0 0
0 0 0 0 0 0 0 0 0 0 0 0 0 0 0 0 0 0 0 0 0 0 0 0 0 0 0 0 0 0 0 0 0 0 0 0 0 0
0 0 0 0 0 0 0 0 0 0 0 0 0 0 0 0 0 0 0 0 0 0 0 0 0 0 0 0 0 0 0 0 0 0 0 0 0 0
0 0 0 0 0 0 0 0 0 0 0 0 0 0 0 0 0 0 0 0 0 0 0 0 0 0 0 0 0 0 0 0 0 0 0 0 0 0
0 0 0 0 0 0 0 0 0 0 0 0 0 0 0 0 0 0 0 0 0 0 0 0 0 0 0 0 0 0 0 0 0 0 0 0 0 0
0 0 0 0 0 0 0 0 0 0 0 0 0 0 0 0 0 0 0 0 0 0 0 0 0 0 0 0 0 0 0 0 0 0 0 0 0 0
0 0 0 0 0 0 0 0 0 0 0 0 0 0 0 0 0 0 0 0 0 0 0 0 0 0 0 0 0 0 0 0 0 0 0 0 0 0
0 0 0 0 0 0 0 0 0 0 0 0 0 0 0 0 0 0 0 0 0 0 0 0 0 0 0 0 0 0 0 0 0 0 0 0 0 0
0 0 0 0 0 0 0 0 0 0 0 0 0 0 0 0 0 0 0 0 0 0 0 0 0 0 0 0 0 0 0 0 0 0 0 0 0 0
0 0 0 0 0 0 0 0 0 0 0 0 0 0 0 0 0 0 0 0 0 0 0 0 0 0 0 0 0 0 0 0 0 0 0 0 0 0
0 0 0 0 0 0 0 0 0 0 0 0 0 0 0 0 0 0 0 0 0 0 0 0 0 0 0 0 0 0 0 0 0 0 0 0 0 0
0 0 0 0 0 0 0 0 0 0 0 0 0 0 0 0 0 0 0 0 0 0 0 0 0 0 0 0 0 0 0 0 0 0 0 0 0 0
0 0 0 0 0 0 0 0 0 0 0 0 0 0 0 0 0 0 0 0 0 0 0 0 0 0 0 0 0 0 0 0 0 0 0 0 0 0
Wind_Speed
3 3 3 3 2 3 3 3 3 3 3 3 2 2 1 1 1 1 1 1 2 1 2 2 3 3 3 4 4 4 4 4 4 4 5 6 6 6
3 3 3 3 3 2 3 3 3 3 3 2 2 2 2 2 1 1 1 2 2 3 3 3 4 4 4 4 4 4 5 5 5 5 5 6 6 6
3 3 4 4 3 3 2 2 3 3 3 3 2 1 1 2 1 1 2 2 2 4 4 4 5 5 5 4 4 4 4 5 5 5 5 5 5 5
4 4 5 3 3 3 2 2 2 3 3 3 2 1 2 2 2 2 2 2 2 4 5 5 5 5 5 5 5 5 5 5 5 6 6 5 5 6
4 4 5 4 4 3 3 2 2 2 2 3 2 1 1 1 1 2 2 2 3 3 4 5 5 5 6 6 6 6 6 6 6 6 6 6 6 6
4 4 4 4 4 4 3 3 2 1 1 2 2 1 1 1 1 1 2 1 2 2 3 3 4 5 6 7 7 7 7 7 7 7 7 6 6 6
5 4 4 5 5 4 3 3 2 1 1 2 2 1 2 1 1 1 2 2 2 2 2 2 2 3 4 5 7 8 8 9 8 8 8 8 7 7
5 5 5 5 5 5 4 4 3 3 3 2 2 3 3 3 2 2 2 1 2 1 2 2 2 4 4 4 6 8 9 9 9 9 9 9 9 9
4 5 4 4 4 3 4 4 3 5 6 4 4 5 4 4 3 3 3 3 3 2 2 3 2 4 4 5 8 8 9 9 10 10 10 10 10 10
4 4 4 5 4 3 3 4 4 4 4 4 5 6 6 5 4 4 3 3 3 3 3 3 3 4 4 4 7 9 9 10 10 10 10 10 11 11
4 4 4 4 5 4 3 4 5 5 4 4 6 7 7 7 5 3 2 2 3 2 3 3 3 3 3 4 5 8 9 10 10 10 10 11 11 10
4 4 4 5 6 5 3 3 5 6 4 4 4 4 5 5 7 6 5 4 3 3 3 3 2 2 3 2 2 3 5 7 9 9 10 10 9 6
4 4 4 5 6 6 4 4 7 6 5 4 4 4 3 3 4 5 6 5 5 4 3 4 3 2 3 2 2 2 3 3 3 5 8 9 9 8
4 4 4 6 7 7 5 5 7 5 3 3 3 3 3 3 3 4 6 6 6 7 5 5 3 3 3 3 3 2 3 3 3 4 4 5 8 10
4 6 6 7 6 5 5 6 4 3 2 3 3 4 3 3 3 2 3 4 6 7 6 7 6 5 4 5 4 3 3 3 3 4 4 4 4 5
4 5 6 5 4 5 5 3 2 2 3 3 4 4 3 3 2 2 2 2 3 4 5 7 7 7 5 6 5 5 5 4 3 4 4 4 4 5
3 2 2 3 3 3 3 3 2 2 3 3 3 3 3 3 3 2 2 2 3 4 4 3 4 6 7 5 5 6 6 5 5 4 3 4 5 5
1 2 3 3 4 4 4 4 3 3 3 3 3 3 3 3 4 3 3 3 4 5 5 4 2 2 3 5 8 7 6 5 5 4 4 4 5 5
1 2 3 4 4 4 4 4 4 4 3 3 3 3 3 4 3 3 3 3 4 5 5 3 3 3 4 6 5 8 6 5 4 4 5 5 6 5
2 3 4 4 4 4 4 4 4 4 3 3 3 4 3 3 4 4 4 4 4 4 4 4 4 4 5 6 5 4 8 7 5 5 5 5 5 5
3 3 3 4 4 4 4 4 4 4 4 3 4 4 3 4 4 4 4 5 4 4 5 5 4 5 4 3 4 4 4 7 7 5 5 4 4 4
4 4 4 4 4 4 4 4 4 4 4 4 4 4 4 4 5 6 5 5 4 5 6 5 4 2 3 4 5 5 5 4 5 8 9 7 5 4
3 3 3 3 3 3 3 4 4 4 4 4 4 5 4 4 4 5 5 5 5 5 5 4 3 3 3 4 5 5 6 6 4 4 5 7 10 11
Wind_Direction
277 274 271 268 263 256 244 235 241 266 273 271 275 268 271 275 268 273 270 265 256 246 231 230 229 228 230 226 221 217 219 223 226 231 231 233 234 238
280 280 281 271 273 262 248 241 227 230 255 256 259 275 286 281 255 279 271 263 250 244 236 233 226 217 220 220 216 214 217 222 224 230 234 236 235 238
302 292 289 277 276 275 262 243 225 213 237 264 261 263 264 274 295 289 274 271 260 248 242 234 226 223 221 219 219 218 218 221 224 227 230 234 232 230
302 299 295 296 288 285 273 259 234 217 219 247 266 256 239 248 267 275 280 269 262 257 248 241 235 229 226 226 227 228 227 227 229 231 232 232 232 231
291 291 292 297 294 292 283 275 254 234 215 220 258 268 255 253 264 281 278 274 267 259 251 244 240 237 233 231 231 231 231 232 232 232 232 231 233 233
287 286 284 279 278 283 283 276 268 264 226 220 245 266 267 276 255 266 280 279 279 277 261 252 242 239 237 235 235 236 235 233 232 234 233 231 232 233
297 293 286 285 281 272 268 259 251 256 256 240 248 257 264 259 253 251 266 280 276 254 263 256 249 248 243 238 237 237 237 236 234 232 231 231 232 232
293 298 297 295 299 297 290 270 234 225 238 240 248 248 251 247 244 246 253 259 266 221 234 261 243 253 250 243 240 238 238 237 234 231 229 229 229 229
277 288 296 299 300 307 309 306 280 248 231 231 241 246 247 238 226 239 238 240 251 242 226 258 246 258 256 249 240 241 240 237 233 230 228 227 227 226
270 268 275 288 288 297 303 303 294 281 254 239 240 247 246 239 227 232 239 247 263 246 211 247 253 255 262 255 246 243 242 240 236 233 232 230 227 224
286 276 266 277 287 296 292 296 302 300 286 258 246 251 252 243 223 209 217 225 257 252 199 223 248 260 266 261 249 238 239 240 240 238 235 232 230 225
294 289 272 267 282 289 270 277 288 292 302 305 289 273 259 242 217 212 213 222 238 253 206 208 234 241 271 259 264 250 237 238 238 239 238 234 225 218
289 294 294 294 292 288 268 254 258 272 288 287 285 280 268 249 228 217 213 215 223 239 212 194 225 221 245 279 283 266 247 245 237 239 237 232 219 208
274 286 292 303 301 299 284 266 267 271 270 277 281 280 272 265 250 230 222 223 230 241 233 207 224 223 232 255 269 270 259 247 239 247 244 226 220 218
268 280 291 301 306 300 287 284 279 258 254 266 275 275 267 265 263 252 238 231 241 244 237 222 226 230 230 243 255 261 271 263 238 238 239 229 220 207
284 292 296 296 293 286 294 294 275 254 245 255 268 272 275 272 263 250 248 245 255 263 241 227 225 224 234 239 245 257 253 258 255 241 243 244 233 221
303 312 324 327 329 323 316 305 292 273 256 257 266 278 281 273 268 253 243 243 248 265 273 253 227 225 233 237 244 250 253 250 248 245 241 253 248 233
296 300 309 312 311 311 312 310 304 292 277 268 266 269 275 278 280 266 243 244 254 260 265 265 251 239 239 239 223 244 252 253 254 239 230 244 261 248
266 290 297 301 302 302 300 297 296 295 288 276 271 272 273 275 276 278 269 255 258 261 263 258 243 235 256 273 249 214 236 256 251 246 237 234 250 258
269 283 292 299 301 301 302 303 302 303 297 287 280 275 269 270 276 278 275 273 272 271 271 261 244 237 244 262 272 259 222 235 247 254 256 250 254 262
293 286 287 293 298 299 301 300 299 299 299 298 293 289 284 276 271 272 274 274 271 270 270 270 263 250 252 250 256 263 257 230 234 245 254 255 259 257
297 298 298 299 302 304 300 300 301 299 301 300 300 297 291 277 275 277 277 275 271 268 269 274 275 254 233 241 258 270 280 283 254 239 241 237 239 241
303 305 306 310 312 314 311 307 304 304 305 304 300 298 293 283 277 276 276 276 276 277 277 277 275 261 254 252 263 273 280 284 288 283 270 246 235 244